Location: ???????
(55.4231°N, 38.5570°E)
Time: 13:38:01
(UTC+00:00)

Cosmos 2322 Rocket - Pass Details

Date: 05 August 2024
Orbit: 831 x 851 km, 71.0° (Epoch: 19 September)

Event Time Altitude Azimuth Distance (km) Brightness Sun altitude
Exits shadow 00:32:26 10° 235° (SW) 2,501 4.0 -8.3°
Reaches altitude 10° 00:32:32 10° 235° (SW) 2,466 4.0 -8.3°
Maximum altitude 00:38:04 54° 312° (NW) 1,033 2.7 -7.7°
Drops below altitude 10° 00:43:40 10° 30° (NNE) 2,489 6.1 -7.2°
Sets 00:46:13 0° 35° (NE) 3,430 7.5 -6.9°
